Location: Elaina
(34.1445°N, 106.7742°W)
Time: 11:51:57
(UTC+00:00)

NOSS 3-1 (C) - Pass Details

Date: 21 March 2026
Orbit: 618 x 1583 km, 63.4° (Epoch: 10 January)

Event Time Altitude Azimuth Distance (km) Brightness Sun altitude
Rises 03:55:48 0° 230° (SW) 2,883 6.3 -32.3°
Reaches altitude 10° 03:58:05 10° 239° (WSW) 2,008 5.5 -32.7°
Enters shadow 03:59:43 21° 252° (WSW) 1,457 4.8 -33.0°
